Location: ???????????
(41.2395°N, 22.9891°E)
Time: 22:23:11
(UTC+00:00)

Daily predictions for brighter satellites

Satellite Brightness Start Highest point End
(mag) Time Altitude Azimuth Time Altitude Azimuth Time Altitude Azimuth
NOSS 3-3 (A) 3.6 16:16:20 10° SSW 16:21:20 89° ESE 16:27:14 10° NE
Okean 2 Rocket 3.5 16:20:04 10° N 16:24:12 39° ENE 16:28:16 10° SSE
IRS-1C 4.2 16:19:48 10° SSE 16:25:07 87° WSW 16:30:29 10° NNW
Cosmos 2123 Rocket 4.4 16:18:57 10° SSW 16:25:16 75° W 16:31:36 10° N
Cosmos 1378 Rocket 3.7 16:23:34 10° S 16:27:53 78° W 16:32:11 10° N
CZ-2D R/B 3.9 16:29:17 10° SE 16:32:50 35° ENE 16:36:28 10° N
Cosmos 2297 Rocket 2.5 16:27:34 10° S 16:32:57 47° ESE 16:38:21 10° NE
Meteor 2-1 Rocket 4.4 16:31:05 10° N 16:36:49 57° ENE 16:42:37 10° SSE
Sich 1 Rocket 3.9 16:32:56 10° N 16:37:18 44° ENE 16:41:39 10° SSE
GP-B 3.5 16:35:19 10° S 16:39:39 66° W 16:44:00 10° N
Cosmos 1025 Rocket 2.9 16:36:32 10° S 16:40:48 77° E 16:45:08 10° N
Resurs 01 Rocket 2.5 16:40:01 10° SE 16:43:42 27° ENE 16:47:26 10° N
Tiangong -1.2 16:41:10 10° SW 16:44:07 36° SSE 16:46:31 14° E
SKYMED 2 3.7 16:40:02 10° N 16:44:24 83° W 16:48:43 10° SSW
Resurs 1-3 3.5 16:42:32 10° SSE 16:46:48 69° ENE 16:51:05 10° N
Cosmos 1356 Rocket 3.4 16:44:17 10° NNW 16:48:14 82° W 16:52:13 10° S
Cosmos 1447 Rocket 4.4 16:50:12 10° S 16:56:17 73° E 17:02:25 10° NNE
SPOT 1/Viking Rocket 4.1 16:51:17 10° S 16:56:19 61° WSW 17:01:25 10° NNW
Cosmos 2263 Rocket 3.4 16:59:24 10° SE 17:03:24 20° E 17:04:53 18° E
Cosmos 1980 3.8 16:59:38 10° NNW 17:05:12 54° ENE 17:10:42 10° SE
Meteor 1-27 4.5 17:00:23 10° N 17:05:59 48° ENE 17:11:35 10° SSE
COSMOS 2428 3.1 17:00:20 10° NNW 17:06:02 68° WSW 17:11:41 10° SSE
Helios 1A Rocket 3.3 17:06:13 25° E 17:06:30 25° E 17:09:15 10° SSE
Cosmos 2237 Rocket 2.3 17:05:01 10° NNW 17:10:37 56° ENE 17:16:11 10° SE
Cosmos 2285 Rocket 4.0 17:05:46 10° NNW 17:12:12 75° ENE 17:18:34 10° SSE
SJ-6B 3.1 17:12:29 23° ESE 17:13:54 33° ENE 17:17:01 10° N
CARTOSAT-1 3.4 17:11:49 10° SSE 17:15:59 82° ENE 17:20:13 10° N
Cosmos 44 Rocket 3.2 17:14:34 10° SSW 17:19:25 73° ESE 17:23:37 15° NE
Delta 2 Rocket 4.0 17:18:24 10° WSW 17:21:07 28° S 17:22:00 24° SSE
SJ-7 4.5 17:17:45 10° S 17:21:26 67° W 17:25:06 10° NNW
Aureole 3 Rocket 2.7 17:20:56 10° NNW 17:24:39 69° W 17:27:44 10° S
Cosmos 1513 Rocket 4.4 17:18:52 10° N 17:25:10 71° E 17:31:31 10° SSE
NOSS 0 Rocket 4.4 17:20:59 10° NNW 17:27:09 65° WSW 17:33:16 10° S
Cosmos 2227 Rocket 2.2 17:26:32 10° S 17:32:04 61° ESE 17:36:55 14° NNE
SL-16 R/B 3.2 17:30:46 10° N 17:35:24 26° NE 17:35:24 26° NE
Cosmos 1570 Rocket 4.4 17:31:08 10° SSW 17:36:21 65° WNW 17:41:36 10° NNE
Cosmos 1125 Rocket 4.4 17:36:30 10° NNW 17:41:30 50° WSW 17:46:30 10° S
Cosmos 1975 Rocket 2.9 17:38:32 10° S 17:42:54 85° E 17:47:15 10° N
CZ-4C R/B 4.1 17:41:34 10° WNW 17:44:48 19° NNW 17:48:34 10° NNE
Cosmos 1455 Rocket 3.4 17:41:18 10° NNW 17:45:33 62° W 17:49:47 10° S
BREEZE-M DEB (TANK) 3.7 17:43:57 10° WNW 17:48:26 85° SSW 17:55:26 20° SE
DNEPR-1 R/B 4.4 17:44:26 10° NNW 17:49:16 46° NE 17:49:53 45° ENE
Gbstr 26 Del rocket 4.3 17:46:26 10° SSW 17:53:01 60° SE 17:55:41 39° ENE
Cosmos 1346 Rocket 3.9 17:49:36 10° S 17:51:25 28° S 17:51:25 28° S
Cosmos 1464 Rocket 3.9 17:48:11 10° N 17:54:35 83° E 18:00:52 10° S
Cosmos 2208 Rocket 4.5 17:50:58 10° SSW 17:56:07 61° WNW 18:01:23 10° NNE
Cosmos 783 Rocket 4.4 17:51:55 10° S 17:57:07 64° ESE 17:58:09 52° NE
Cosmos 2228 2.9 17:55:01 10° N 17:59:12 81° W 18:00:41 39° S
SPOT 5 3.2 18:00:21 49° NE 18:00:21 49° NE 18:04:26 10° N
Atlas Centaur 2 3.7 17:56:00 10° WSW 18:02:34 32° S 18:04:57 26° SSE
CSL-04 Debris 4.1 18:07:40 64° ENE 18:07:40 64° ENE 18:13:01 10° N
BREEZE-M (TANK) 3.4 18:06:39 10° WNW 18:10:01 84° SSW 18:12:02 46° SE
CSL-04 Rocket 3.4 18:11:32 75° E 18:11:41 75° ENE 18:16:57 10° N
Cosmos 2297 Rocket 4.1 18:12:28 10° WSW 18:17:11 27° NW 18:21:56 10° N
Resurs 01 Rocket 3.7 18:16:17 10° SSW 18:19:59 27° W 18:23:44 10° NW
Tiangong 0.6 18:17:44 10° W 18:18:49 20° W 18:18:49 20° W
Orbus 7S? 4.4 18:19:36 10° NW 18:24:45 50° NNW 18:24:45 50° NNW
Cosmos 2150 Rocket 4.4 18:21:08 10° NNW 18:26:11 58° WSW 18:27:14 48° SSW
Cosmos 2298 Rocket 4.4 18:23:22 10° NNW 18:28:34 60° WSW 18:29:31 51° SSW
Cosmos 2344 3.5 18:21:35 10° SW 18:29:46 80° NW 18:32:55 38° NNE
NOSS 3-4 (A) 4.1 18:27:37 10° NW 18:34:37 68° WSW 18:37:51 38° S
NOSS 3-4 (C) 4.1 18:27:53 10° NW 18:34:54 69° WSW 18:38:02 40° S
BREEZE-M DEB (TANK) 4.0 18:17:39 10° W 18:35:47 64° N 18:36:50 57° NNE
Cosmos 2263 Rocket 2.7 18:41:12 10° SW 18:46:41 57° WNW 18:46:41 57° WNW
Cosmos 2237 Rocket 4.5 18:50:04 10° NW 18:54:09 21° W 18:58:14 10° SSW
Cosmos 2227 Rocket 4.4 19:12:16 10° W 19:16:31 22° NW 19:18:49 17° NNW
SL-16 R/B 3.9 19:14:23 10° NW 19:17:18 29° NW 19:17:18 29° NW
